Regional Weather Roundup
Issued by NWS

Home | Current Version | Previous Version | Graphics & Text | Print | Product List | Glossary Off
Versions: 1 2 3 4 5 6 7 8 9 10 11 12 13 14 15 16 17 18 19 20 21 22 23 24 25 26 27 28 29 30 31 32 33 34 35 36 37 38 39 40 41 42 43 44 45 46 47 48 49 50

000
ASUS43 KTOP 302008
RWRKS

WEATHER ROUNDUP FOR KANSAS
NATIONAL WEATHER SERVICE GOODLAND KS
300 PM CDT FRI SEP 30 2016

NOTE:  "FAIR" INDICATES FEW OR NO CLOUDS BELOW 12,000 FEET WITH NO
SIGNIFICANT WEATHER AND/OR OBSTRUCTIONS TO VISIBILITY.

KSZ001>006-013>018-027>032-041>047-302100-
NORTHWEST KANSAS

CITY           SKY/WX    TMP DP  RH WIND       PRES   REMARKS
GOODLAND       MOSUNNY   73  46  38 SE20      30.14F
HAYS           MOSUNNY   72  45  37 S8G16     30.17F
HILL CITY      MOSUNNY   70  47  43 SE8       30.18F
RUSSELL        MOSUNNY   70  44  39 SE9       30.17F
$$

KSZ061>065-074>080-084>089-302100-
SOUTHWEST KANSAS

CITY           SKY/WX    TMP DP  RH WIND       PRES   REMARKS
DODGE CITY     SUNNY     75  45  34 S14G21    30.16F
ELKHART          N/A     79  49  35 SE16        N/A
GARDEN CITY    CLOUDY    74  47  38 SE15      30.13F
GREAT BEND     SUNNY     73  45  35 SE9       30.16F
LIBERAL        SUNNY     79  48  34 SE15G23   30.13F
PRATT          MOSUNNY   69  43  39 E5        30.17F
$$

KSZ066>073-081>083-090>101-302100-
SOUTHEAST KANSAS

CITY           SKY/WX    TMP DP  RH WIND       PRES   REMARKS
CHANUTE        SUNNY     76  51  41 N7        30.15F
COFFEYVILLE    SUNNY     76  48  37 MISG      30.15F
HUTCHINSON     CLOUDY    72  45  37 VRB3      30.17F
MEDICINE LODGE   N/A     71  46  40 S6        30.16F
NEWTON         SUNNY     72  47  40 SE7       30.18F
PARSONS        SUNNY     76  48  37 N8        30.16F
WICHITA INTL   MOSUNNY   73  46  38 VRB5      30.16F
WICHITA JABRA  SUNNY     73  47  39 VRB5      30.17F
WICHITA MCCONL SUNNY     73  47  40 VRB3      30.17F
WINFIELD       SUNNY     73  50  44 NW3       30.17F
$$

KSZ007>012-019>026-033>040-048>060-102>105-302100-
NORTHEAST KANSAS

CITY           SKY/WX    TMP DP  RH WIND       PRES   REMARKS
CONCORDIA      SUNNY     73  46  38 E9        30.18F
EMPORIA        SUNNY     74  48  39 NE8       30.17F
LAWRENCE       SUNNY     75  52  44 NW9       30.16F
MANHATTAN      SUNNY     74  50  42 VRB6      30.17F
MARYSVILLE     SUNNY     73  48  40 NE3       30.18F
OLATHE IND     SUNNY     72  51  47 N8        30.16F
OLATHE EXE     SUNNY     72  49  44 N9        30.15F
SALINA         SUNNY     73  46  38 E7        30.18F
TOPEKA BILLARD SUNNY     74  52  46 NW5       30.16F
TOPEKA FORBES  SUNNY     75  53  46 N7        30.17F
$$




USA.gov is the U.S. government's official web portal to all federal, state and local government web resources and services.